sat.trackr.live / text

‹ back to catalog

STARLINK-34126

NORAD 64083 · 2025-107V

PAYLOAD ACTIVE UNKNOWN

§ Identity

Operator
Country
US
Launch date
2025-05-21
Launch site
AFETR
Launch vehicle
Mass (kg)
RCS (m²)

Purposes: comms

External: N2YO · Heavens-Above · Gunter

§ Orbital elements

Epoch: 2026-09-20T04:29:47.478048Z

Period
94.27 min
Inclination
42.9988°
Eccentricity
0.0001452
Mean motion
15.27587429 rev/d
Perigee alt
482.0 km
Apogee alt
484.0 km
Semi-major
6,861.2 km
B*
2.6645e-4
RAAN
183.3630°
Arg perigee
268.3080°
Mean anomaly
91.7605°
Rev number
7,477

§ Raw data

STARLINK-341261 64083U 25107V   26263.18735507  .00007079  00000+0  26645-3 0  99992 64083  42.9988 183.3630 0001452 268.3080  91.7605 15.27587429 74779

JSON: /api/v1/satellites/64083 · /tle

For live sub-satellite position, see the globe view (requires WebGL).

§ Visibility from observer

Set your observer location to see the next 7 days of passes ≥ 10°. The values pass through the URL so the page stays shareable.

No JS? Fill the form by hand. The geolocation button needs JavaScript.